Regional Weather Roundup
Issued by NWS

Home | Current Version | Previous Version | Text Only | Print | Product List | Glossary On
Versions: 1 2 3 4 5 6 7 8 9 10 11 12 13 14 15 16 17 18 19 20 21 22 23 24 25 26 27 28 29 30 31 32 33 34 35 36 37 38 39 40 41 42 43 44 45 46 47 48 49 50
000
ASUS43 KBIS 241931
RWRND
NORTH DAKOTA REGIONAL WEATHER ROUNDUP
NATIONAL WEATHER SERVICE EASTERN NORTH DAKOTA/GRAND FORKS ND
200 PM CDT SAT JUN 24 2017

  NOTE: "FAIR" INDICATES FEW OR NO CLOUDS BELOW 12,000 FEET WITH NO
  SIGNIFICANT WEATHER AND/OR OBSTRUCTIONS TO VISIBILITY.

NDZ001>003-009>011-017-242000-
...NORTHWEST NORTH DAKOTA...

CITY           SKY/WX    TMP DP  RH WIND       PRES   REMARKS
WILLISTON      PTSUNNY   65  35  33 NW18G30   30.29S
MINOT          CLOUDY    58  42  55 NW16G25   30.22R
MINOT AFB      CLOUDY    57  42  57 N14       30.21R
$$

NDZ018>021-031>035-040>046-242000-
...SOUTHWEST NORTH DAKOTA...

CITY           SKY/WX    TMP DP  RH WIND       PRES   REMARKS
BISMARCK       PTSUNNY   62  39  42 N21G29    30.22S
DICKINSON      FAIR      63  29  27 N21G31    30.25S
GARRISON         N/A     57  40  52 N17       30.22R
HETTINGER      FAIR      67  30  25 NW26G35   30.27R
$$

NDZ004>008-012>016-024-026-027-054-242000-
...NORTHEAST NORTH DAKOTA...

CITY           SKY/WX    TMP DP  RH WIND       PRES   REMARKS
GRAND FORKS    LGT RAIN  55  52  89 NW15G24   30.04R
GRAND FORKS AF CLOUDY    54  50  87 N15       30.06R
DEVILS LAKE    CLOUDY    55  45  67 NW21G31   30.13R
$$

NDZ022-023-025-028>030-036>039-047>053-242000-
...SOUTHEAST NORTH DAKOTA...

CITY           SKY/WX    TMP DP  RH WIND       PRES   REMARKS
JAMESTOWN      CLOUDY    57  44  62 NW24G32   30.13R
FARGO          CLOUDY    60  44  55 W26G32    30.05S
WAHPETON       CLOUDY    63  39  42 NW21      30.07S
$$



USA.gov is the U.S. government's official web portal to all federal, state and local government web resources and services.